Regional Weather Roundup
Issued by NWS

Home | Current Version | Previous Version | Graphics & Text | Print | Product List | Glossary Off
Versions: 1 2 3 4 5 6 7 8 9 10 11 12 13 14 15 16 17 18 19 20 21 22 23 24 25 26 27 28 29 30 31 32 33 34 35 36 37 38 39 40 41 42 43 44 45 46 47 48 49 50

000
ASUS43 KMKX 232025
RWRWI

WISCONSIN REGIONAL WEATHER ROUNDUP
NATIONAL WEATHER SERVICE MILWAUKEE/SULLIVAN WI
300 PM CDT THU OCT 23 2014

NOTE: "FAIR" INDICATES FEW OR NO CLOUDS BELOW 12,000 FEET WITH NO
SIGNIFICANT WEATHER AND/OR OBSTRUCTIONS TO VISIBILITY.

WIZ001-002-006>008-014>016-023>028-232100-
NORTHWEST WISCONSIN

CITY           SKY/WX    TMP DP  RH WIND       PRES   REMARKS
SUPERIOR ARPT  CLOUDY    57  51  80 SW8       29.95F
ASHLAND        CLOUDY    54  49  83 SW9       29.97F
HAYWARD        CLOUDY    52  49  89 SW3       29.98F
SIREN          CLOUDY    56  51  84 SW5       29.97F
CUMBERLAND     CLOUDY    52  50  93 SW5       29.98F
RICE LAKE      CLOUDY    52  50  92 S5        30.00F
CHETEK         CLOUDY    51  50  98 SE3       30.00S FOG
LADYSMITH      CLOUDY    49  48  97 S5        30.02S FOG
EAU CLAIRE     CLOUDY    51  50  96 S7        30.00S FOG
MENOMONIE      CLOUDY    53  52  96 CALM      30.00F FOG
NEW RICHMOND   MOSUNNY   59  51  75 S5        29.98S
OSCEOLA        SUNNY     62  54  75 S3        29.99F
$$

WIZ003>005-009-010-017-018-232100-
NORTH CENTRAL WISCONSIN

CITY           SKY/WX    TMP DP  RH WIND       PRES   REMARKS
MANITOWISH WTR CLOUDY    44  44 100 S6        29.99S FOG
ARBOR VITAE    CLOUDY    45  43  95 S6        30.00S FOG
WOODRUFF       CLOUDY    45  43  95 S6        30.00S FOG
RHINELANDER    LGT RAIN  44  43  96 S6        30.02S FOG
EAGLE RIVER    LGT RAIN  44  44 100 SW6       30.01R
LAND O LAKES   CLOUDY    45  44  95 S7        30.00F
PHILLIPS       CLOUDY    46  45  97 SW5       30.00S
TOMAHAWK       CLOUDY    44  43  96 CALM      30.02S FOG
MEDFORD        CLOUDY    45  45  97 S7        30.02S FOG
MERRILL        CLOUDY    46  45  97 S3        30.02S
$$

WIZ029-030-035-036-043>047-232100-
CENTRAL WISCONSIN

CITY           SKY/WX    TMP DP  RH WIND       PRES   REMARKS
WAUSAU         CLOUDY    46  44  93 S7        30.01F FOG
MOSINEE        LGT RAIN  45  45 100 S6        30.03F FOG
MARSHFIELD     LGT RAIN  47  46  97 S6        30.02F FOG
STEVENS POINT  CLOUDY    44  43  97 S3        30.03F FOG
WAUPACA        RAIN      48  47  96 S5        30.06S
WAUTOMA        RAIN      46  46 100 CALM      30.05F VSB 3/4
WISC RAPIDS    CLOUDY    47  46  97 S7        30.04F
CAMP DOUGLAS   DRIZZLE   46  46 100 S2        30.03F FOG
$$

WIZ011>013-019>022-031-037>040-048>050-232100-
NORTHEAST WISCONSIN

CITY           SKY/WX    TMP DP  RH WIND       PRES   REMARKS
ANTIGO         DRIZZLE   42  42  99 S7        30.03S
SHAWANO        DRIZZLE   49  46  91 S3        30.05F
OCONTO         CLOUDY    50  46  85 CALM      30.06F
STURGEON BAY   CLOUDY    52  43  71 S9        30.07F
GREEN BAY      LGT RAIN  52  46  80 SW3       30.06F
MANITOWOC      CLOUDY    52  45  77 S12       30.08F
APPLETON       LGT RAIN  48  45  87 S6        30.05F FOG
CLINTONVILLE   RAIN      46  45  93 S5        30.05F
OSHKOSH        LGT RAIN  50  47  89 CALM      30.05F FOG
$$

WIZ032>034-041-042-053>061-232100-
SOUTHWEST WISCONSIN

CITY           SKY/WX    TMP DP  RH WIND       PRES   REMARKS
LA CROSSE      CLOUDY    50  47  89 S7        30.03S
SPARTA         DRIZZLE   47  46  94 CALM      30.04S
VIROQUA        CLOUDY    46  46 100 S6        30.02F
BOSCOBEL       CLOUDY    50  47  89 S6        30.04F
PRAIRIE DU CHI CLOUDY    49  46  90 SE3       30.03F
PLATTEVILLE    CLOUDY    50  48  94 S9        30.05F
$$

WIZ056-057-062-063-064-067-068-232100-
SOUTH CENTRAL WISCONSIN

CITY           SKY/WX    TMP DP  RH WIND       PRES   REMARKS
REEDSBURG      CLOUDY    46  45  97 S5        30.04S
BARABOO/DELLS  LGT RAIN  47  45  93 S8        30.04F
LONE ROCK      CLOUDY    52  46  80 CALM      30.05S
MINERAL POINT  CLOUDY    50  46  87 S6        30.04F
MADISON        LGT RAIN  50  47  89 SW3       30.04F
MIDDLETON      CLOUDY    52  49  90 CALM      30.05S
WATERTOWN      LGT RAIN  53  48  82 W6        30.06R
MONROE         LGT RAIN  52  46  82 S10       30.03F
JANESVILLE     CLOUDY    57  45  62 S12       30.05F
$$

WIZ051-052-058>065-066-070>072-232100-
SOUTHEAST WISCONSIN

CITY           SKY/WX    TMP DP  RH WIND       PRES   REMARKS
MILWAUKEE      CLOUDY    56  44  64 SE14      30.07F
WAUKESHA       SUNNY     55  39  54 SE13      30.06F
MILWAUKEE/TIMM MOSUNNY   57  39  51 S9        30.07F
RACINE         CLOUDY    55  44  66 S13       30.10F
BURLINGTON     CLOUDY    58  41  53 S9        30.06F
KENOSHA        CLOUDY    60  43  53 S9        30.08F
FOND DU LAC    LGT RAIN  53  46  77 S5        30.04F
SHEBOYGAN      CLOUDY    52  43  71 SE9       30.07F
WEST BEND      LGT RAIN  54  43  66 CALM      30.05F
JUNEAU         RAIN      52  46  80 SW7       30.07R
$$

LSZ147-162-232100-
LAKE SUPERIOR

STATION/POSITION TIME  TEMP    WIND        PRES    WAVE
                       AIR SEA DIR/SP/G            HT/PER
                 (UTC) (F)     (DEG/KT/KT) (MB)    (FT/S)
W MID LAKE BUOY  1950   47 46  190/  6/  6 1014.9F   1/ 3
DEVILS ISLAND    2000   50     240/  4/  5 1014.8F
PORT WING        1900   53     200/  6/  9 1014.9S
SAXON HARBOR     1900   53     200/  6/ 13 1014.9F
$$

LMZ867-665-643>646-232100-
LAKE MICHIGAN

STATION/POSITION TIME  TEMP    WIND        PRES    WAVE
                       AIR SEA DIR/SP/G            HT/PER
                 (UTC) (F)     (DEG/KT/KT) (MB)    (FT/S)
CHAMBERS ISLAND  1900   54     160/  5/  8 1018.6F
N MID LAKE BUOY  1950   50 51  200/ 17/ 19 1018.9F   3/ 5
NORTHPORT PIER   1900   52     160/  8/ 17 1019.0F
SISTER BAY       1913          170/ 15/ 18   N/A
ALGOMA LAKESHORE 1741          220/ 18/ 21   N/A
KEWAUNEE LAKESHO 2000   50     170/ 12/ 14 1017.5F
SHEBOYGAN LAKESH 2000   51 50  140/ 13/ 14 1018.5F
PORT WASHINGTON  1900   52     170/  8/ 11 1019.3
ATWATER BUOY     2000   52     150/ 16/ 19 1019.0F
MILWAUKEE LAKESH 1900   51     140/ 16/ 18   N/A
S MID LAKE BUOY  1950   53 54  180/ 14/ 16 1020.0F
KENOSHA   LAKESH 2000   54     160/ 16/ 18 1018.6S
$$

TC  - TEMPERATURE IN CELSIUS
VSB - VISIBILITY IN STATUTE MILES
WCI - WIND CHILL INDEX
HX  - HEAT INDEX




USA.gov is the U.S. government's official web portal to all federal, state and local government web resources and services.